Location: Peebles
(55.6412°N, 3.1714°W)
Time: 11:21:59
(UTC+00:00)

CUTE-I - Pass Details

Date: 12 December 2023
Orbit: 807 x 823 km, 98.7° (Epoch: 24 February)

Event Time Altitude Azimuth Distance (km) Brightness Sun altitude
Rises 07:37:16 0° 14° (NNE) 3,368 ? -7.0°
Reaches altitude 10° 07:39:40 10° 9° (N) 2,433 ? -6.7°
Maximum altitude 07:44:51 50° 296° (WNW) 1,042 ? -6.1°
Drops below altitude 10° 07:50:01 10° 222° (SW) 2,422 ? -5.5°
Sets 07:52:24 0° 217° (SW) 3,351 ? -5.2°
